This is the latest recevied weather packets stored in our database for station/object OH2HCY-3. If no packets are shown the sender has not sent any weather packets the latest 10 day(s).
| Time | Temp. | Humidity | Pressure | Rain* | Wind** | Luminosity | Snow |
|---|---|---|---|---|---|---|---|
| 1787534092 | 12.22° C | 87% | 1009 hPa | - | - | - | - |
| 1787533077 | 12.78° C | 87% | 1009.1 hPa | - | - | - | - |
| 1787531902 | 12.78° C | 87% | 1009 hPa | - | - | - | - |
| 1787530871 | 12.78° C | 87% | 1008.9 hPa | - | - | - | - |
| 1787529847 | 12.78° C | 86% | 1008.8 hPa | - | - | - | - |
| 1787528837 | 12.78° C | 85% | 1008.7 hPa | - | - | - | - |
| 1787527657 | 13.33° C | 84% | 1008.5 hPa | - | - | - | - |
| 1787526547 | 13.33° C | 84% | 1008.4 hPa | - | - | - | - |
| 1787525487 | 13.33° C | 83% | 1008.3 hPa | - | - | - | - |
| 1787524322 | 13.33° C | 83% | 1008.2 hPa | - | - | - | - |
| 1787523225 | 13.33° C | 82% | 1008.2 hPa | - | - | - | - |
| 1787522167 | 13.89° C | 81% | 1008.1 hPa | - | - | - | - |
| 1787521100 | 13.89° C | 81% | 1007.9 hPa | - | - | - | - |
| 1787520032 | 13.89° C | 81% | 1007.8 hPa | - | - | - | - |
| 1787518922 | 14.44° C | 78% | 1007.7 hPa | - | - | - | - |
| 1787517962 | 15° C | 76% | 1007.7 hPa | - | - | - | - |
| 1787516842 | 15° C | 77% | 1007.5 hPa | - | - | - | - |
| 1787515686 | 15° C | - | - | - | - | - | - |
| 1787515684 | 15° C | 76% | 1007.4 hPa | - | - | - | - |
| 1787514596 | 15° C | 75% | 1007.3 hPa | - | - | - | - |
| 1787513486 | 14.44° C | 76% | 1007.1 hPa | - | - | - | - |
| 1787513482 | 14.44° C | 76% | 1007.1 hPa | - | - | - | - |
| 1787512403 | 14.44° C | 77% | 1007 hPa | - | - | - | - |
| 1787511301 | 14.44° C | 77% | - | - | - | - | - |
| 1787511299 | 14.44° C | 77% | 1006.7 hPa | - | - | - | - |
* Rain since midnight (hover to see other rain measurements)
** Current wind speed in m/s (hover to see current wind gust speed)